Tracking 31030 objects as of 16-Jul-2025
HD Live streaming from Space Station
objects crossing your sky now

STARLINK-4287

Track STARLINK-4287 now!
10-day predictions
STARLINK-4287 is classified as:


NORAD ID: 53020
Int'l Code: 2022-076AL
Perigee: 545.8 km
Apogee: 548.0 km
Inclination: 53.2 °
Period: 95.4 minutes
Semi major axis: 6917 km
RCS: Unknown
Launch date: July 7, 2022
Source: United States (US)
Launch site: AIR FORCE EASTERN TEST RANGE (AFETR)
Your satellite tracking list
Your tracking list is empty




NASA's NSSDC Master Catalog

Two Line Element Set (TLE):
1 53020U 22076AL  25197.87567399 -.00000748  00000-0 -28915-4 0  9995
2 53020  53.2195  62.7326 0001549  90.1806 269.9364 15.08828707167858
Source of the keplerian elements: AFSPC